Vorticity
15 17 8 -1 8 15 13 -4 1 1 7 -2 -4 -3 -6 1 13 20 3 33 6 4 8 7 4 3 6 5 5 9 5 6 11 13 16 9 4 3 1 0 1 2 2 3
10 10 6 6 12 8 2 1 -1 2 3 12 -4 -1 3 6 4 10 8 -8 9 4 4 4 5 2 3 5 7 8 6 12 17 6 4 4 4 1 1 2 2 3 3 2
23 10 4 9 16 1 -7 15 8 10 -1 -1 -2 7 9 1 -5 3 -1 10 6 4 4 2 7 -2 3 2 5 11 8 9 9 2 3 1 1 2 2 2 2 2 1 2
9 2 16 11 18 -3 26 -0 -2 9 2 -1 12 -3 -6 5 12 6 -16 6 12 5 2 4 2 -2 3 8 9 9 8 11 7 -0 0 0 2 2 2 2 2 2 2 4
-2 25 12 47 4 -2 4 21 5 -1 6 32 23 0 -1 -8 34 -3 -2 23 26 15 10 7 1 -2 6 12 10 11 13 10 3 0 -0 -0 0 1 2 2 3 4 4 4
6 31 5 -0 -10 4 2 11 12 6 7 -0 5 1 4 3 -0 33 8 5 -4 11 17 4 10 9 10 13 10 12 5 6 3 2 2 1 1 2 2 3 3 3 2 4
18 -8 10 10 5 6 -1 9 4 1 3 8 5 0 4 34 -0 5 7 6 18 0 8 12 10 13 15 9 1 3 2 2 4 2 2 2 2 2 4 3 3 6 7 8
8 6 8 27 -1 -11 1 7 10 6 6 6 11 9 -1 -0 -1 3 7 9 9 6 7 13 17 16 1 3 2 2 3 4 3 3 5 7 -0 -0 4 8 7 8 8 10
3 10 5 9 3 -1 2 -1 19 10 8 2 6 -15 59 20 -11 6 9 17 13 11 12 10 4 2 2 4 4 4 3 3 2 5 4 4 3 4 9 8 7 7 7 9
-5 6 6 -2 0 3 1 4 5 10 8 4 12 7 8 10 8 13 8 4 4 4 4 4 2 3 2 1 3 3 3 2 4 3 10 6 7 9 9 9 9 12 7 8
12 -1 -9 11 1 17 4 16 4 6 4 7 6 8 11 8 5 -5 -4 12 7 3 3 4 5 4 3 2 2 2 3 6 9 10 10 10 9 5 5 4 13 10 9 14
10 6 18 -0 13 16 10 14 9 6 8 4 9 14 6 3 3 2 10 10 3 4 4 3 1 -1 1 4 2 4 8 9 10 11 5 8 7 4 6 4 16 16 11 3
5 0 3 7 10 6 10 5 9 7 6 7 8 16 22 11 12 7 3 2 5 8 6 -0 -1 6 6 4 2 8 3 10 7 -1 6 3 6 -0 9 16 12 4 3 7
3 4 12 8 3 7 3 7 1 8 6 8 16 9 11 6 7 3 1 3 14 6 0 6 8 6 2 4 3 3 2 33 10 7 13 5 -3 14 12 6 4 7 10 8
-6 3 5 6 5 5 5 5 10 4 4 14 8 9 7 7 6 5 4 3 5 3 6 5 7 -2 1 1 12 8 18 10 4 13 9 13 6 7 6 6 9 9 7 6
4 11 6 7 5 5 4 4 5 11 1 8 12 10 12 4 5 4 4 2 4 4 4 1 -1 1 3 5 9 11 19 12 13 5 -2 7 8 8 9 11 5 6 7 2
12 7 4 2 2 4 4 9 10 13 6 11 7 3 6 5 4 3 2 3 4 4 3 4 9 8 6 8 13 14 11 3 9 10 10 10 10 11 6 6 4 3 8 11
3 14 16 12 16 13 15 18 11 16 14 8 9 6 6 8 8 6 5 4 5 6 6 5 5 6 9 13 11 7 9 12 10 10 7 12 10 6 5 4 5 8 3 14
13 19 -1 10 12 9 13 9 15 10 7 9 9 8 7 6 5 4 6 6 4 5 5 6 7 9 12 10 6 11 10 8 10 11 14 6 7 3 4 15 5 7 6 2
17 -0 4 12 12 12 9 9 16 10 10 8 6 5 6 6 9 7 5 5 5 6 7 10 9 12 7 8 11 7 10 11 12 8 7 4 16 -11 13 14 -13 21 24 1
15 18 13 12 13 15 20 18 13 12 8 7 10 11 9 8 6 5 6 5 6 7 7 13 10 5 11 9 8 9 13 13 9 8 5 2 5 8 12 14 12 11 10 11
14 17 21 19 16 15 15 14 12 13 11 9 8 8 6 5 5 4 5 8 9 11 11 6 7 8 7 7 11 13 10 8 4 4 5 8 11 13 11 8 9 10 11 15
7 9 6 7 8 10 8 8 6 6 7 5 4 4 4 5 5 7 8 8 11 10 7 7 7 8 10 14 17 12 6 3 6 7 12 14 12 9 10 8 5 8 23 16
6 4 3 4 5 5 5 3 3 3 3 4 5 4 6 6 7 8 10 10 9 9 7 7 8 10 15 15 7 2 5 5 8 11 13 9 8 5 2 5 13 17 16 19
-1 -2 -0 1 0 1 1 2 3 3 3 2 1 3 5 6 8 9 9 9 9 9 7 8 14 18 12 5 4 4 5 8 11 13 9 3 3 3 7 14 16 19 17 13
0 -0 -1 1 1 3 3 4 5 5 5 5 5 7 8 9 6 7 11 12 7 6 10 15 15 8 5 3 3 5 7 14 14 7 3 3 4 7 13 16 18 18 17 12
Height
5764 5766 5768 5771 5773 5774 5775 5776 5777 5782 5784 5785 5784 5787 5786 5786 5788 5789 5789 5788 5790 5790 5791 5791 5791 5792 5794 5793 5794 5794 5795 5796 5796 5795 5796 5796 5797 5797 5796 5792 5790 5787 5784 5780
5766 5766 5768 5770 5773 5774 5775 5778 5780 5781 5780 5783 5785 5785 5784 5785 5785 5787 5787 5788 5789 5789 5790 5791 5793 5793 5792 5794 5793 5793 5794 5794 5793 5793 5794 5794 5792 5790 5788 5786 5783 5780 5775 5770
5765 5767 5768 5769 5770 5773 5774 5776 5779 5783 5781 5781 5782 5783 5784 5784 5785 5787 5788 5789 5790 5789 5790 5792 5793 5791 5792 5792 5791 5790 5789 5789 5790 5791 5792 5790 5788 5786 5782 5779 5775 5770 5765 5759
5764 5766 5766 5768 5769 5773 5774 5776 5776 5781 5783 5783 5783 5782 5782 5784 5784 5787 5788 5790 5791 5791 5789 5789 5790 5791 5792 5792 5789 5787 5786 5786 5787 5787 5788 5786 5782 5779 5776 5771 5766 5760 5755 5751
5762 5762 5764 5767 5769 5774 5774 5777 5776 5779 5781 5780 5781 5782 5783 5782 5782 5783 5785 5785 5786 5790 5789 5788 5787 5786 5787 5787 5786 5784 5783 5782 5782 5782 5781 5780 5777 5774 5769 5764 5759 5753 5748 5743
5760 5761 5764 5767 5769 5771 5773 5774 5775 5777 5778 5778 5779 5779 5781 5780 5779 5781 5782 5782 5781 5781 5781 5781 5781 5781 5781 5781 5781 5781 5781 5781 5779 5776 5774 5771 5767 5763 5757 5751 5746 5741 5736 5730
5760 5761 5764 5766 5768 5768 5771 5773 5774 5775 5774 5775 5775 5775 5776 5778 5778 5779 5778 5775 5776 5774 5775 5775 5777 5777 5776 5775 5776 5777 5777 5775 5772 5769 5766 5762 5756 5751 5746 5741 5736 5731 5725 5719
5758 5761 5763 5764 5764 5764 5766 5769 5771 5770 5770 5771 5771 5770 5773 5774 5776 5774 5775 5771 5770 5770 5770 5773 5773 5773 5772 5771 5771 5769 5768 5767 5765 5761 5757 5753 5748 5744 5739 5733 5727 5721 5714 5709
5754 5757 5759 5760 5761 5764 5764 5766 5767 5766 5767 5768 5769 5769 5766 5770 5772 5772 5772 5770 5770 5770 5771 5772 5771 5771 5771 5769 5768 5766 5765 5761 5758 5754 5750 5746 5741 5735 5729 5723 5717 5711 5706 5700
5752 5754 5756 5757 5760 5760 5762 5763 5764 5763 5762 5763 5765 5764 5764 5765 5766 5767 5768 5768 5767 5767 5768 5768 5769 5769 5768 5767 5765 5763 5760 5756 5751 5746 5742 5737 5732 5725 5719 5714 5708 5702 5696 5691
5745 5750 5753 5754 5757 5759 5758 5759 5759 5760 5759 5758 5760 5761 5760 5760 5760 5761 5763 5765 5765 5764 5765 5765 5765 5764 5763 5761 5758 5755 5751 5746 5741 5737 5733 5728 5721 5715 5710 5704 5698 5696 5688 5680
5742 5745 5748 5751 5751 5751 5752 5755 5754 5755 5756 5755 5756 5758 5756 5756 5755 5755 5756 5759 5762 5762 5761 5760 5759 5759 5757 5754 5752 5748 5743 5737 5732 5725 5720 5716 5711 5707 5701 5695 5689 5683 5675 5667
5739 5740 5743 5745 5747 5748 5750 5748 5749 5750 5750 5750 5751 5752 5752 5751 5750 5749 5749 5752 5753 5754 5753 5752 5751 5750 5748 5745 5743 5740 5735 5730 5725 5718 5713 5707 5702 5696 5689 5684 5678 5670 5661 5652
5736 5736 5738 5740 5742 5743 5742 5743 5745 5744 5744 5745 5746 5746 5746 5745 5744 5745 5744 5746 5747 5746 5745 5743 5741 5739 5735 5732 5728 5724 5721 5716 5712 5707 5702 5695 5689 5683 5676 5670 5663 5656 5648 5640
5730 5732 5733 5735 5736 5737 5737 5739 5741 5739 5740 5739 5742 5740 5742 5740 5740 5740 5740 5740 5741 5740 5737 5734 5731 5728 5724 5720 5717 5712 5708 5702 5698 5693 5688 5682 5676 5669 5663 5657 5650 5644 5636 5627
5725 5726 5727 5729 5730 5731 5731 5733 5736 5736 5735 5734 5735 5736 5735 5733 5734 5735 5736 5733 5731 5729 5726 5722 5719 5717 5715 5712 5706 5701 5696 5691 5686 5680 5675 5670 5664 5657 5651 5645 5638 5630 5622 5612
5721 5721 5722 5722 5724 5724 5724 5730 5729 5728 5728 5727 5727 5729 5728 5729 5728 5727 5726 5725 5723 5721 5719 5719 5718 5714 5709 5702 5696 5690 5685 5680 5675 5671 5666 5659 5652 5645 5639 5632 5624 5615 5606 5595
5714 5715 5715 5716 5718 5716 5721 5721 5720 5721 5722 5722 5722 5723 5724 5724 5723 5721 5720 5717 5715 5713 5711 5707 5704 5700 5694 5690 5684 5679 5674 5670 5665 5659 5653 5646 5639 5633 5625 5618 5608 5598 5588 5578
5709 5707 5708 5708 5710 5712 5714 5714 5714 5715 5715 5716 5717 5717 5718 5717 5716 5714 5712 5710 5708 5704 5700 5697 5692 5686 5682 5678 5674 5669 5663 5658 5652 5646 5640 5633 5626 5618 5609 5600 5591 5582 5573 5563
5702 5702 5702 5702 5703 5704 5707 5707 5708 5709 5709 5710 5712 5712 5711 5710 5708 5707 5704 5701 5698 5694 5690 5684 5679 5675 5671 5667 5661 5655 5650 5644 5638 5633 5626 5619 5611 5604 5595 5588 5578 5569 5560 5550
5695 5696 5696 5695 5696 5698 5700 5700 5701 5703 5709 5706 5706 5705 5705 5704 5702 5699 5696 5693 5689 5685 5680 5675 5670 5665 5660 5654 5648 5642 5637 5632 5626 5620 5613 5606 5598 5589 5581 5573 5563 5553 5543 5533
5689 5689 5689 5690 5691 5693 5694 5695 5697 5699 5698 5700 5700 5698 5697 5695 5693 5691 5688 5683 5678 5673 5667 5663 5659 5653 5648 5642 5636 5630 5625 5619 5614 5607 5600 5592 5584 5575 5565 5557 5547 5537 5527 5519
5685 5686 5685 5687 5688 5689 5689 5691 5693 5694 5694 5692 5691 5689 5688 5686 5683 5680 5676 5670 5666 5661 5656 5651 5645 5639 5633 5627 5622 5617 5612 5606 5600 5592 5584 5577 5568 5560 5551 5541 5531 5521 5509 5501
5680 5681 5681 5683 5684 5684 5685 5686 5686 5686 5685 5683 5682 5680 5678 5675 5672 5668 5664 5659 5654 5649 5644 5639 5633 5626 5620 5614 5609 5604 5598 5592 5585 5578 5569 5561 5552 5544 5535 5525 5514 5504 5493 5485
5676 5676 5677 5677 5679 5679 5678 5678 5678 5678 5676 5675 5673 5670 5667 5664 5660 5656 5651 5646 5641 5636 5631 5625 5619 5614 5608 5603 5597 5591 5584 5575 5568 5560 5553 5546 5537 5527 5516 5506 5496 5486 5478 5470
5669 5670 5671 5671 5671 5670 5670 5669 5667 5666 5664 5663 5661 5658 5655 5651 5646 5642 5637 5633 5628 5623 5617 5611 5606 5601 5596 5590 5584 5576 5568 5560 5553 5545 5537 5527 5518 5508 5499 5489 5480 5468 5461 5455